[[{"header":{"parameterUnit":"m.s-1","parameterCategory":1,"la1":30.2991,"la2":30.254,"lo1":-89.0895,"lo2":-89.0444,"dy":0.0017,"dx":0.0017,"nx":28,"ny":28,"refTime":"2025-08-05T21:00:00:Z","depth":0,"parameterNumber":2,"parameterNumberName":"U-component_of_WINDS"},"data":[0,0,0,0,0,0,0,0,0,0,0,0,0,0,0,0,0,0,0,0,0,0,0,0,0,0,0,0,0,0,0,0,0,0,0,0,0,0,0,0,0,0,0,0,0,0,0,0,0,0,0,0,0,0,0,0,0,0,-1.3318,-1.3319,0,-1.3422,-1.3423,-1.3424,-1.3472,-1.3472,-1.3472,-1.3472,-1.3575,-1.3578,-1.358,0,0,0,0,0,0,0,0,0,0,0,0,0,-1.3157,-1.316,-1.3318,-1.3319,-1.332,-1.3422,-1.3423,-1.3425,-1.3472,-1.3472,-1.3472,-1.3472,-1.3574,-1.3577,-1.3581,0,0,0,0,0,0,0,0,0,0,0,0,0,-1.3241,-1.3161,-1.3318,-1.3356,-1.3361,-1.3421,-1.3423,-1.3425,-1.3472,-1.3472,-1.3472,-1.3471,-1.3573,-1.3577,-1.3581,-1.361,0,0,-1.3594,-1.3596,0,0,0,0,0,0,0,0,-1.3236,-1.3246,-1.3349,-1.3354,-1.3359,-1.3434,-1.3404,-1.3487,-1.3472,-1.343,-1.3472,-1.3471,-1.3528,-1.3536,-1.3556,-1.3615,-1.3619,-1.3595,-1.3597,-1.3599,-1.36,0,0,0,0,0,0,0,-1.323,-1.3242,-1.3359,-1.3351,-1.3357,-1.3368,-1.3379,-1.342,-1.3478,-1.3433,-1.3437,-1.3449,-1.353,-1.3551,-1.3558,-1.3621,-1.3594,-1.3598,-1.3601,-1.3603,-1.3709,-1.371,0,0,0,0,0,0,-1.3218,-1.3237,-1.3356,-1.3362,-1.3296,-1.3371,-1.3384,-1.341,-1.3478,-1.3488,-1.3449,-1.3451,-1.3544,-1.3553,-1.3562,-1.3601,-1.3599,-1.3603,-1.3605,-1.3709,-1.3709,-1.371,0,0,0,0,0,0,-1.3215,-1.3228,-1.3351,-1.3301,-1.3317,-1.3373,-1.3403,-1.3412,-1.3433,-1.349,-1.35,-1.346,-1.3544,-1.3556,-1.3598,-1.3605,-1.3605,-1.3609,-1.3709,-1.3709,-1.371,-1.3678,0,0,0,0,0,0,-1.321,-1.3227,-1.3239,-1.3301,-1.332,-1.3386,-1.3403,-1.3414,-1.3441,-1.3444,-1.3503,-1.3512,-1.3545,-1.3591,-1.3602,-1.3611,-1.3612,-1.3708,-1.3709,-1.3709,-1.3679,-1.3677,-1.3676,0,0,0,0,0,-1.3204,-1.3225,-1.324,-1.3254,-1.3336,-1.3387,-1.3398,-1.3436,-1.3441,-1.3453,-1.349,-1.351,-1.3602,-1.3595,-1.3608,-1.3618,-1.3708,-1.3709,-1.3709,-1.3679,-1.3677,-1.3676,0,0,0,0,0,0,-1.3162,-1.3234,-1.3251,-1.3293,-1.3333,-1.3395,-1.3412,-1.3433,-1.3472,-1.3474,-1.3519,-1.3532,-1.357,-1.3598,-1.3589,-1.3649,-1.3657,-1.366,-1.363,-1.3629,-1.3627,-1.362,-1.3616,0,0,0,0,0,-1.3158,-1.3194,-1.3254,-1.3286,-1.3305,-1.3355,-1.3378,-1.3404,-1.3448,-1.3465,-1.3505,-1.3545,-1.3583,-1.3607,-1.3646,-1.3683,-1.3696,-1.3696,-1.3694,-1.3693,-1.3695,-1.3717,-1.3718,-1.3712,-1.3712,-1.3712,0,0,-1.315,-1.3193,-1.3213,-1.3278,-1.3313,-1.3348,-1.3369,-1.3405,-1.3432,-1.347,-1.3513,-1.3543,-1.3591,-1.3631,-1.365,-1.3656,-1.37,-1.3694,-1.3692,-1.3696,-1.3718,-1.3718,-1.3719,-1.3712,-1.3712,-1.3712,0,0,-1.3152,-1.3189,-1.322,-1.3254,-1.3306,-1.3339,-1.3346,-1.3404,-1.3426,-1.347,-1.3499,-1.3531,-1.3596,-1.3629,-1.3654,-1.3669,-1.369,-1.368,-1.3674,-1.3694,-1.3695,-1.3696,-1.3701,-1.3703,-1.3682,-1.3682,-1.3682,0,-1.3135,-1.3191,-1.3232,-1.3267,-1.3295,-1.3332,-1.3363,-1.3394,-1.3455,-1.3473,-1.3478,-1.3561,-1.3596,-1.3644,-1.3648,-1.3667,-1.3676,-1.3674,-1.3692,-1.3693,-1.3694,-1.37,-1.3702,-1.3681,-1.3681,-1.3681,-1.3681,0,-1.3167,-1.3204,-1.3222,-1.3282,-1.3312,-1.3344,-1.339,-1.3415,-1.3438,-1.347,-1.3513,-1.3557,-1.3605,-1.3618,-1.3641,-1.3669,-1.3671,-1.3683,-1.3692,-1.3692,-1.3699,-1.3701,-1.3679,-1.3679,-1.368,-1.368,0,0,-1.3146,-1.3229,-1.3235,-1.3263,-1.3323,-1.3353,-1.3386,-1.3434,-1.3455,-1.3495,-1.3525,-1.3579,-1.3591,-1.3619,-1.3646,-1.3664,-1.3674,-1.3675,-1.3676,-1.3673,-1.3708,-1.3698,-1.37,-1.3687,-1.3688,-1.3689,-1.3704,0,-1.3158,-1.3222,-1.326,-1.3307,-1.3343,-1.3378,-1.3408,-1.3447,-1.3478,-1.3512,-1.3545,-1.3583,-1.3596,-1.3613,-1.3633,-1.3668,-1.3681,-1.3668,-1.3715,-1.3716,-1.3702,-1.3704,-1.3694,-1.3706,-1.3707,-1.3707,-1.3707,0,-1.318,-1.3221,-1.3273,-1.3329,-1.3346,-1.3371,-1.3418,-1.345,-1.3496,-1.3517,-1.3549,-1.3576,-1.3612,-1.3617,-1.3668,-1.3658,-1.3679,-1.3699,-1.3701,-1.3707,-1.3712,-1.371,-1.3711,-1.3713,-1.3712,-1.3711,-1.3711,0,-1.316,-1.3229,-1.3269,-1.3291,-1.3358,-1.3375,-1.3404,-1.3449,-1.3475,-1.3516,-1.3533,-1.3577,-1.3601,-1.3633,-1.3671,-1.3672,-1.3718,-1.3726,-1.3736,-1.3735,-1.3744,-1.3743,-1.3749,-1.3757,-1.3757,-1.3757,-1.3757,0,-1.3169,-1.3199,-1.3261,-1.3285,-1.332,-1.3363,-1.3395,-1.3427,-1.3467,-1.3497,-1.353,-1.3558,-1.3606,-1.3639,-1.3669,-1.3706,-1.3717,-1.3734,-1.3742,-1.3732,-1.3729,-1.3746,-1.3747,-1.3758,-1.3758,-1.3758,-1.3757,0,-1.3153,-1.3196,-1.3242,-1.3301,-1.3317,-1.334,-1.3391,-1.3415,-1.3447,-1.3486,-1.3497,-1.3547,-1.3588,-1.3629,-1.3684,-1.3704,-1.3741,-1.3751,-1.3726,-1.373,-1.3738,-1.3736,-1.3755,-1.376,-1.3764,-1.3764,-1.3764,0,-1.3157,-1.3181,-1.3243,-1.3267,-1.3295,-1.3332,-1.3359,-1.3402,-1.3428,-1.3482,-1.35,-1.3544,-1.3581,-1.3645,-1.3686,-1.3728,-1.374,-1.3743,-1.3746,-1.3735,-1.374,-1.3738,-1.3741,-1.3742,-1.3742,-1.3741,-1.3741,0,-1.3158,-1.3178,-1.3216,-1.3262,-1.3293,-1.3331,-1.337,-1.3387,-1.3437,-1.3465,-1.3508,-1.3537,-1.3594,-1.3637,-1.3684,-1.3712,-1.3735,-1.374,-1.3744,-1.3734,-1.3719,-1.3728,-1.3723,-1.3739,-1.374,-1.374,-1.374,-1.374,-1.3152,-1.3175,-1.3223,-1.3265,-1.3298,-1.3334,-1.336,-1.3396,-1.3433,-1.3483,-1.3506,-1.3549,-1.3593,-1.3659,-1.3687,-1.3721,-1.3727,-1.3733,-1.3735,-1.3736,-1.3734,-1.3713,-1.3729,-1.373,-1.373,-1.373,-1.373,0,-1.3155,-1.3188,-1.3226,-1.3279,-1.3312,-1.3331,-1.3375,-1.3401,-1.3439,-1.3479,-1.3515,-1.3564,-1.3606,-1.365,-1.3694,-1.3713,-1.3724,-1.3723,-1.3722,-1.3728,-1.3726,-1.3718,-1.3713,-1.3713,-1.3713,-1.3713,-1.3713,-1.3713,-1.3161,-1.3201,-1.3226,-1.3284,-1.3316,-1.3359,-1.3382,-1.3415,-1.3447,-1.3501,-1.3536,-1.3565,-1.3607,-1.3654,-1.3693,-1.3705,-1.372,-1.3716,-1.373,-1.3727,-1.3728,-1.3729,-1.3722,-1.3718,-1.3718,-1.373,-1.373,-1.373]},{"header":{"parameterUnit":"m.s-1","parameterCategory":1,"la1":30.2991,"la2":30.254,"lo1":-89.0895,"lo2":-89.0444,"dy":0.0017,"dx":0.0017,"nx":28,"ny":28,"refTime":"2025-08-05T21:00:00:Z","depth":0,"parameterNumber":3,"parameterNumberName":"V-component_of_WINDS"},"data":[0,0,0,0,0,0,0,0,0,0,0,0,0,0,0,0,0,0,0,0,0,0,0,0,0,0,0,0,0,0,0,0,0,0,0,0,0,0,0,0,0,0,0,0,0,0,0,0,0,0,0,0,0,0,0,0,0,0,-0.8121,-0.8122,0,-0.8145,-0.8145,-0.8145,-0.819,-0.819,-0.8191,-0.8192,-0.8214,-0.8214,-0.8214,0,0,0,0,0,0,0,0,0,0,0,0,0,-0.8113,-0.8113,-0.8121,-0.8122,-0.8122,-0.8145,-0.8145,-0.8145,-0.8189,-0.819,-0.8192,-0.8193,-0.8214,-0.8214,-0.8214,0,0,0,0,0,0,0,0,0,0,0,0,0,-0.8125,-0.8113,-0.8121,-0.8147,-0.8149,-0.8144,-0.8145,-0.8145,-0.8189,-0.819,-0.8192,-0.8193,-0.8214,-0.8214,-0.8214,-0.8186,0,0,-0.8213,-0.8213,0,0,0,0,0,0,0,0,-0.8124,-0.8125,-0.8143,-0.8145,-0.8148,-0.8166,-0.815,-0.8159,-0.8189,-0.8174,-0.8192,-0.8194,-0.8197,-0.8198,-0.82,-0.8187,-0.8188,-0.8213,-0.8213,-0.8212,-0.8212,0,0,0,0,0,0,0,-0.8123,-0.8124,-0.813,-0.8143,-0.8146,-0.8156,-0.8159,-0.8152,-0.8178,-0.8175,-0.8179,-0.8181,-0.8199,-0.82,-0.82,-0.8188,-0.8213,-0.8212,-0.8212,-0.8212,-0.8152,-0.815,0,0,0,0,0,0,-0.8119,-0.8123,-0.813,-0.8131,-0.8139,-0.8155,-0.8159,-0.8158,-0.8178,-0.8182,-0.818,-0.8183,-0.82,-0.8201,-0.8201,-0.8169,-0.8212,-0.8212,-0.8212,-0.8153,-0.8152,-0.815,0,0,0,0,0,0,-0.8119,-0.8119,-0.8129,-0.8128,-0.813,-0.8154,-0.8153,-0.8158,-0.816,-0.8181,-0.8186,-0.8176,-0.8201,-0.8202,-0.8189,-0.817,-0.8212,-0.8212,-0.8155,-0.8153,-0.8151,-0.8104,0,0,0,0,0,0,-0.8118,-0.8119,-0.8109,-0.8128,-0.813,-0.8116,-0.8152,-0.8158,-0.8159,-0.8163,-0.8179,-0.8183,-0.8202,-0.8189,-0.8189,-0.817,-0.8211,-0.8157,-0.8154,-0.8151,-0.8107,-0.81,-0.8094,0,0,0,0,0,-0.8118,-0.8094,-0.8108,-0.8108,-0.8118,-0.8115,-0.8117,-0.8139,-0.8157,-0.8147,-0.8161,-0.8183,-0.8172,-0.8188,-0.8187,-0.8169,-0.8158,-0.8155,-0.8152,-0.811,-0.8101,-0.8094,0,0,0,0,0,0,-0.8072,-0.8097,-0.8113,-0.8095,-0.8103,-0.8123,-0.8111,-0.813,-0.8132,-0.8136,-0.8163,-0.8166,-0.815,-0.8158,-0.8175,-0.8142,-0.8169,-0.8165,-0.8137,-0.8129,-0.8123,-0.8121,-0.8211,0,0,0,0,0,-0.806,-0.8056,-0.8078,-0.806,-0.8063,-0.8086,-0.8086,-0.8102,-0.8111,-0.8115,-0.8128,-0.8135,-0.8134,-0.8132,-0.8132,-0.8109,-0.8112,-0.8096,-0.8089,-0.8084,-0.808,-0.8068,-0.806,-0.814,-0.814,-0.814,0,0,-0.8035,-0.8048,-0.8044,-0.8051,-0.8059,-0.8054,-0.8089,-0.8082,-0.8078,-0.8114,-0.8102,-0.8112,-0.8122,-0.8104,-0.8096,-0.811,-0.8059,-0.808,-0.8076,-0.8075,-0.8064,-0.8056,-0.8049,-0.8138,-0.8138,-0.8138,0,0,-0.7986,-0.7996,-0.7982,-0.7989,-0.8001,-0.8016,-0.8013,-0.803,-0.8038,-0.8027,-0.8054,-0.8049,-0.8046,-0.8052,-0.8055,-0.8007,-0.8027,-0.8007,-0.7973,-0.7961,-0.7954,-0.7949,-0.7931,-0.7924,-0.8003,-0.8003,-0.8003,0,-0.7953,-0.7946,-0.7972,-0.7963,-0.7965,-0.7998,-0.7983,-0.7989,-0.8,-0.8,-0.8016,-0.8012,-0.8021,-0.8004,-0.7993,-0.7994,-0.799,-0.8005,-0.7953,-0.7948,-0.7943,-0.7927,-0.792,-0.8001,-0.8001,-0.8001,-0.8001,0,-0.7905,-0.79,-0.7887,-0.7897,-0.7898,-0.7886,-0.7909,-0.7906,-0.7923,-0.7936,-0.7924,-0.7936,-0.7939,-0.7936,-0.7952,-0.7921,-0.7929,-0.7949,-0.7976,-0.7933,-0.7917,-0.7911,-0.7997,-0.7998,-0.7998,-0.7999,0,0,-0.7827,-0.7851,-0.7846,-0.7851,-0.7866,-0.7862,-0.7852,-0.7855,-0.7852,-0.7858,-0.7849,-0.7846,-0.7864,-0.7867,-0.7884,-0.7873,-0.7833,-0.7894,-0.7894,-0.7881,-0.7798,-0.7782,-0.7775,-0.7847,-0.7846,-0.7845,-0.7797,0,-0.7781,-0.7765,-0.7787,-0.7765,-0.7761,-0.7791,-0.7782,-0.779,-0.7802,-0.7799,-0.7813,-0.781,-0.7834,-0.7836,-0.7827,-0.784,-0.7817,-0.7844,-0.7838,-0.7837,-0.7833,-0.7767,-0.7751,-0.7705,-0.7791,-0.779,-0.779,0,-0.7725,-0.7728,-0.7706,-0.7723,-0.7721,-0.7713,-0.7717,-0.7714,-0.7724,-0.7733,-0.7736,-0.7756,-0.7746,-0.7773,-0.7759,-0.7777,-0.7776,-0.7782,-0.7781,-0.778,-0.781,-0.7763,-0.7691,-0.7684,-0.7781,-0.7781,-0.7782,0,-0.7669,-0.7669,-0.7655,-0.7658,-0.7677,-0.767,-0.7678,-0.7688,-0.7688,-0.7692,-0.7692,-0.7694,-0.7695,-0.7695,-0.7715,-0.7733,-0.7698,-0.7727,-0.7705,-0.7704,-0.7695,-0.7695,-0.762,-0.7696,-0.7696,-0.7696,-0.7697,0,-0.7614,-0.7599,-0.763,-0.7622,-0.7606,-0.7631,-0.7614,-0.7625,-0.7634,-0.7628,-0.7655,-0.7648,-0.7675,-0.7671,-0.7687,-0.7672,-0.7673,-0.7679,-0.7683,-0.7676,-0.7675,-0.7675,-0.7678,-0.7695,-0.7695,-0.7695,-0.7696,0,-0.7549,-0.7569,-0.7556,-0.7575,-0.758,-0.7567,-0.7583,-0.7575,-0.759,-0.7581,-0.758,-0.7602,-0.7599,-0.7619,-0.7619,-0.7629,-0.7607,-0.7617,-0.7603,-0.7606,-0.7582,-0.7584,-0.7504,-0.7494,-0.7577,-0.7576,-0.7575,0,-0.7512,-0.7501,-0.7519,-0.7517,-0.7523,-0.7519,-0.752,-0.7544,-0.7543,-0.7553,-0.7544,-0.7543,-0.7543,-0.7536,-0.7551,-0.7551,-0.7561,-0.7533,-0.7561,-0.7554,-0.7559,-0.7559,-0.7558,-0.7527,-0.7526,-0.7525,-0.7524,0,-0.7444,-0.7455,-0.7455,-0.7457,-0.7457,-0.746,-0.7465,-0.7462,-0.7488,-0.7486,-0.7483,-0.7483,-0.7483,-0.7481,-0.7484,-0.7491,-0.7511,-0.7515,-0.751,-0.7502,-0.7494,-0.7497,-0.7586,-0.7517,-0.7518,-0.7518,-0.7518,-0.7519,-0.7392,-0.7383,-0.7394,-0.7393,-0.7399,-0.7403,-0.7397,-0.741,-0.7408,-0.741,-0.7425,-0.7419,-0.7428,-0.7434,-0.7439,-0.7434,-0.7448,-0.744,-0.7438,-0.7436,-0.7431,-0.7496,-0.7435,-0.7435,-0.7436,-0.7436,-0.7436,0,-0.7324,-0.7333,-0.7331,-0.7338,-0.7336,-0.7356,-0.7363,-0.736,-0.7354,-0.7361,-0.7361,-0.7357,-0.7355,-0.737,-0.7371,-0.7364,-0.7373,-0.7363,-0.7363,-0.7364,-0.742,-0.7424,-0.7355,-0.7355,-0.7355,-0.7355,-0.7355,-0.7355,-0.7289,-0.7276,-0.7287,-0.7277,-0.7286,-0.728,-0.7282,-0.7286,-0.7291,-0.7286,-0.7285,-0.7295,-0.7305,-0.7306,-0.7304,-0.7309,-0.7307,-0.7293,-0.7301,-0.7352,-0.736,-0.7368,-0.7372,-0.7293,-0.7293,-0.7246,-0.7245,-0.7245]}]]